EW3204 Weather Reports


time (UTC)temp
F
wind
direction
speed
knots
gust
knots
rain 1hr
in
rain 24hr
in
rain mn
in
humidity
%
barometer
mb
20260505041530 62 297 8.7 0.0 0.00 0.00 0.00 48 1011.3
20260505040029 62 260 8.7 0.0 0.00 0.00 0.00 48 1011.2
20260505034523 62 288 8.7 0.0 0.00 0.00 0.00 48 1011.1
20260505033020 62 273 11.3 0.0 0.00 0.00 0.00 46 1010.9
20260505031532 63 281 10.4 0.0 0.00 0.00 0.00 45 1010.8
20260505030017 63 264 12.2 0.0 0.00 0.00 0.00 44 1010.4
20260505024516 63 274 11.3 0.0 0.00 0.00 0.00 44 1010.2
20260505023015 64 263 13.9 0.0 0.00 0.00 0.00 43 1009.8
20260505021515 65 279 15.6 0.0 0.00 0.00 0.00 41 1009.4
20260505020015 65 269 13.0 0.0 0.00 0.00 0.00 39 1009.7
20260505014513 66 267 10.4 0.0 0.00 0.00 0.00 38 1009.6
20260505013013 67 274 9.6 0.0 0.00 0.00 0.00 37 1009.5
20260505011514 67 288 12.2 0.0 0.00 0.00 0.00 36 1009.6
20260505010016 68 269 12.2 0.0 0.00 0.00 0.00 35 1009.5
20260505004513 68 267 13.9 0.0 0.00 0.00 0.00 33 1009.6
20260505003011 68 258 12.2 0.0 0.00 0.00 0.00 34 1009.6
20260505001512 68 285 11.3 0.0 0.00 0.00 0.00 33 1009.5
20260505000011 69 264 13.0 0.0 0.00 0.00 0.00 33 1009.7
20260504234510 69 290 16.5 0.0 0.00 0.00 0.00 34 1009.4
20260504233010 70 326 15.6 0.0 0.00 0.00 0.00 33 1009.2
20260504231510 70 327 16.5 0.0 0.00 0.00 0.00 32 1009.1
20260504230011 71 308 15.6 0.0 0.00 0.00 0.00 32 1009.0
20260504224508 71 308 15.6 0.0 0.00 0.00 0.00 32 1009.0
20260504223011 71 288 15.6 0.0 0.00 0.00 0.00 34 1009.3
20260504221507 71 291 16.5 0.0 0.00 0.00 0.00 33 1009.4
20260504220013 71 297 13.9 0.0 0.00 0.00 0.00 31 1009.4
20260504214507 71 285 14.8 0.0 0.00 0.00 0.00 32 1009.6
20260504213019 71 306 14.8 0.0 0.00 0.00 0.00 31 1009.7
20260504211506 71 298 13.0 0.0 0.00 0.00 0.00 31 1009.8
20260504210005 71 301 14.8 0.0 0.00 0.00 0.00 32 1009.9
20260504204512 71 275 14.8 0.0 0.00 0.00 0.00 33 1009.9
20260504203004 71 275 12.2 0.0 0.00 0.00 0.00 32 1010.0
20260504201502 71 271 13.0 0.0 0.00 0.00 0.00 33 1009.9
20260504200002 70 297 11.3 0.0 0.00 0.00 0.00 33 1010.1
20260504194602 70 289 12.2 0.0 0.00 0.00 0.00 33 1010.3
20260504193058 70 279 10.4 0.0 0.00 0.00 0.00 33 1010.2
20260504191600 69 299 11.3 0.0 0.00 0.00 0.00 33 1010.4
20260504190053 69 310 12.2 0.0 0.00 0.00 0.00 34 1010.6
20260504184551 68 290 10.4 0.0 0.00 0.00 0.00 35 1010.9
20260504183051 68 288 9.6 0.0 0.00 0.00 0.00 36 1011.1
20260504181549 67 279 9.6 0.0 0.00 0.00 0.00 37 1011.4
20260504180046 66 307 9.6 0.0 0.00 0.00 0.00 37 1011.4
20260504174544 65 275 10.4 0.0 0.00 0.00 0.00 39 1011.4
20260504173042 65 309 9.6 0.0 0.00 0.00 0.00 40 1011.3
20260504171546 65 301 9.6 0.0 0.00 0.00 0.00 37 1011.1
20260504090105 61 288 13.0 0.0 0.00 0.00 0.00 49 1008.7
20260504081556 62 271 10.4 0.0 0.00 0.00 0.00 48 1009.5
20260504044534 65 287 3.5 0.0 0.00 0.00 0.00 41 1006.7